Regional Weather Roundup
Issued by NWS

Home | Current Version | Previous Version | Graphics & Text | Print | Product List | Glossary On
Versions: 1 2 3 4 5 6 7 8 9 10 11 12 13 14 15 16 17 18 19 20 21 22 23 24 25 26 27 28 29 30 31 32 33 34 35 36 37 38 39 40 41 42 43 44 45 46 47 48 49 50
000
ASUS43 KBIS 281210
RWRND

NORTH DAKOTA REGIONAL WEATHER ROUNDUP
NATIONAL WEATHER SERVICE BISMARCK ND
700 AM CDT MON JUL 28 2014

NOTE: "FAIR" INDICATES FEW OR NO CLOUDS BELOW 12,000 FEET WITH NO
SIGNIFICANT WEATHER AND/OR OBSTRUCTIONS TO VISIBILITY.


NDZ001>003-009>011-017-281300-
NORTHWEST NORTH DAKOTA

CITY           SKY/WX    TMP DP  RH WIND       PRES   REMARKS
WILLISTON      PTCLDY    53  50  89 CALM      30.32S
6HR MIN TEMP:  50; 6HR MAX TEMP:  56;

MINOT          PTCLDY    51  49  92 CALM      30.32R
MINOT AFB      PTCLDY    51  50  99 W5        30.32R
$$

NDZ018>021-031>035-040>046-281300-
SOUTHWEST NORTH DAKOTA

CITY           SKY/WX    TMP DP  RH WIND       PRES   REMARKS
BISMARCK       CLEAR     44  44 100 CALM      30.35S
6HR MIN TEMP:  44; 6HR MAX TEMP:  56;

DICKINSON      CLEAR     49  46  90 S5        30.33F
GARRISON         N/A     49  47  93 CALM      30.33S
6HR MIN TEMP:  47; 6HR MAX TEMP:  52;

HETTINGER ARPT FOG       45  43  93 CALM      30.36S VSB 1
$$

NDZ004>008-012>016-024-026-027-054-281300-
NORTHEAST NORTH DAKOTA

CITY           SKY/WX    TMP DP  RH WIND       PRES   REMARKS
GRAND FORKS    CLOUDY    59  55  87 NW5       30.26R
GRND FRKS AFB  CLOUDY    59  57  92 NW5       30.28R
DEVILS LAKE    CLEAR     54  48  82 CALM      30.29S
$$

NDZ022-023-025-028>030-036>039-047>053-281300-
SOUTHEAST NORTH DAKOTA

CITY           SKY/WX    TMP DP  RH WIND       PRES   REMARKS
FARGO          CLOUDY    60  55  83 NW7       30.26R
6HR MIN TEMP:  59; 6HR MAX TEMP:  61;

JAMESTOWN      CLOUDY    56  53  90 NW6       30.30R
$$




USA.gov is the U.S. government's official web portal to all federal, state and local government web resources and services.